Regional Weather Roundup
Issued by NWS Sioux Falls, SD

Home | Current Version | Previous Version | Text Only | Print | Product List | Glossary Off
Versions: 1 2 3 4 5 6 7 8 9 10 11 12 13 14 15 16 17 18 19 20 21 22 23 24 25 26 27 28 29 30 31 32 33 34 35 36 37 38 39 40 41 42 43 44 45 46 47 48 49 50

000
ASUS43 KFSD 251202
RWRFSD

WEATHER ROUNDUP FOR SE SOUTH DAKOTA/SW MINNESOTA/NW IOWA
NATIONAL WEATHER SERVICE SIOUX FALLS SD
700 AM CDT WED MAY 25 2016

NOTE: "FAIR" INDICATES FEW OR NO CLOUDS BELOW 12,000 FEET WITH NO
SIGNIFICANT WEATHER AND OR OBSTRUCTIONS TO VISIBILITY.


SDZ038>040-050-052>070-251300-
SOUTHEAST SOUTH DAKOTA

CITY           SKY/WX    TMP DP  RH WIND       PRES   REMARKS
BROOKINGS      CLOUDY    60  58  92 E15G21    29.76F
CHAMBERLAIN    NOT AVBL
HURON          RAIN      59  58  96 N12       29.73S FOG
6HR MIN TEMP:  59; 6HR MAX TEMP:  69; 6HR PCP:  0.21;

MADISON        FAIR      59  59 100 S9        29.79R
MITCHELL       CLOUDY    62  60  93 S13       29.76R
6HR MIN TEMP:  60; 6HR MAX TEMP:  71; 6HR PCP:  0.51;

SIOUX FALLS    LGT RAIN  60  58  92 SE9       29.82R
6HR MIN TEMP:  60; 6HR MAX TEMP:  70; 6HR PCP:  0.19;

WINNER         PTSUNNY   59  56  89 CALM      29.80R
YANKTON        CLOUDY    61  57  88 SE3       29.82R
$$

MNZ071-072-080-081-089-090-097-098-251300-
SOUTHWEST MINNESOTA

CITY           SKY/WX    TMP DP  RH WIND       PRES   REMARKS
FAIRMONT       CLOUDY    64  55  72 SE13      29.87S
JACKSON        CLOUDY    64  61  88 S13G22    29.90R
LUVERNE        CLOUDY    63  59  88 SE8       29.83R
MARSHALL       NOT AVBL
MONTEVIDEO     CLOUDY    64  61  88 S7        29.85R
PIPESTONE      LGT RAIN  61  61 100 SE12      29.83R
REDWOOD FALLS  CLOUDY    65  58  78 SE8       29.83R
WINDOM         HVY RAIN  66  63  88 S10       29.87R
$$

IAZ001>003-012>014-020>022-031-032-NEZ013-014-SDZ071-251300-
NORTHWEST IOWA

CITY           SKY/WX    TMP DP  RH WIND       PRES   REMARKS
DENISON        CLOUDY    63  61  94 E5        29.84S
ESTHERVILLE    LGT RAIN  64  62  93 S13       29.89R
SIOUX CITY     LGT RAIN  65  60  84 SW5       29.84R
6HR MIN TEMP:  64; 6HR MAX TEMP:  71; 6HR PCP: TRACE;

SPENCER        LGT RAIN  65  61  87 CALM      29.89R
6HR MIN TEMP:  64; 6HR MAX TEMP:  66; 6HR PCP:  0.05;

STORM LAKE     CLOUDY    64  59  82 W6G15     29.88R
$$

ABBREVIATIONS USED IN REMARKS
   TC - TEMPERATURE IN CELSIUS
  WCI - WIND CHILL INDEX
   HX - HEAT INDEX
  VSB - VISIBILITY





USA.gov is the U.S. government's official web portal to all federal, state and local government web resources and services.